TimeEDT,TemperatureF,Dew PointF,Humidity,Sea Level PressureIn,VisibilityMPH,Wind Direction,Wind SpeedMPH,Gust SpeedMPH,PrecipitationIn,Events,Conditions,WindDirDegrees,DateUTC
12:16 AM,69.8,68.0,94,29.53,9.0,Calm,Calm,-,0.01,,Overcast,0,2013-06-29 04:16:00
12:23 AM,69.8,69.8,100,29.52,8.0,Calm,Calm,-,0.01,Rain-Thunderstorm,Light Rain,0,2013-06-29 04:23:00
12:35 AM,69.8,69.8,100,29.53,8.0,South,5.8,-,0.01,Rain,Light Rain,190,2013-06-29 04:35:00
12:52 AM,71.1,69.1,93,29.52,6.0,South,4.6,-,0.02,Rain,Light Rain,180,2013-06-29 04:52:00
1:17 AM,71.6,69.8,94,29.51,8.0,SSE,5.8,-,0.01,,Mostly Cloudy,150,2013-06-29 05:17:00
1:29 AM,71.6,69.8,94,29.51,8.0,South,8.1,-,0.01,,Mostly Cloudy,180,2013-06-29 05:29:00
1:52 AM,71.1,69.1,93,29.50,8.0,Calm,Calm,-,0.01,,Mostly Cloudy,0,2013-06-29 05:52:00
2:04 AM,71.6,69.8,94,29.50,7.0,Calm,Calm,-,N/A,,Mostly Cloudy,0,2013-06-29 06:04:00
2:25 AM,71.6,69.8,94,29.50,7.0,Calm,Calm,-,N/A,,Overcast,0,2013-06-29 06:25:00
2:32 AM,71.6,69.8,94,29.51,7.0,Calm,Calm,-,N/A,,Overcast,0,2013-06-29 06:32:00
2:52 AM,71.1,69.1,93,29.49,7.0,South,3.5,-,N/A,,Overcast,190,2013-06-29 06:52:00
3:11 AM,71.6,69.8,94,29.51,6.0,Calm,Calm,-,N/A,,Overcast,0,2013-06-29 07:11:00
3:24 AM,71.6,69.8,94,29.51,6.0,SSE,6.9,-,N/A,,Overcast,160,2013-06-29 07:24:00
3:44 AM,71.6,69.8,94,29.51,6.0,South,5.8,-,N/A,,Mostly Cloudy,170,2013-06-29 07:44:00
3:52 AM,71.1,69.1,93,29.50,6.0,SSE,4.6,-,N/A,,Overcast,160,2013-06-29 07:52:00
4:27 AM,69.8,69.8,100,29.51,7.0,South,5.8,-,N/A,,Mostly Cloudy,170,2013-06-29 08:27:00
4:52 AM,70.0,68.0,93,29.51,6.0,SSE,6.9,-,N/A,,Mostly Cloudy,150,2013-06-29 08:52:00
5:29 AM,69.8,68.0,94,29.54,7.0,Calm,Calm,-,N/A,,Overcast,0,2013-06-29 09:29:00
5:52 AM,70.0,68.0,93,29.54,5.0,SSE,3.5,-,N/A,,Overcast,160,2013-06-29 09:52:00
6:52 AM,71.1,69.1,93,29.56,6.0,South,4.6,-,N/A,,Mostly Cloudy,190,2013-06-29 10:52:00
7:52 AM,72.0,68.0,87,29.55,10.0,South,5.8,-,N/A,,Mostly Cloudy,170,2013-06-29 11:52:00
8:52 AM,73.0,68.0,84,29.56,10.0,South,6.9,-,N/A,,Partly Cloudy,180,2013-06-29 12:52:00
9:12 AM,73.4,66.2,78,29.58,10.0,South,6.9,-,N/A,,Mostly Cloudy,170,2013-06-29 13:12:00
9:52 AM,73.0,66.9,81,29.57,10.0,SSE,6.9,-,N/A,,Overcast,160,2013-06-29 13:52:00
10:52 AM,73.0,66.9,81,29.58,10.0,South,8.1,-,N/A,,Overcast,190,2013-06-29 14:52:00
11:17 AM,75.2,68.0,78,29.58,10.0,South,10.4,-,N/A,,Mostly Cloudy,180,2013-06-29 15:17:00
11:52 AM,77.0,68.0,74,29.58,10.0,South,12.7,-,N/A,,Scattered Clouds,190,2013-06-29 15:52:00
12:52 PM,79.0,66.9,66,29.58,10.0,SSW,12.7,20.7,N/A,,Scattered Clouds,200,2013-06-29 16:52:00
1:52 PM,81.0,66.0,60,29.57,10.0,South,16.1,21.9,N/A,,Scattered Clouds,170,2013-06-29 17:52:00
2:52 PM,82.0,64.9,56,29.57,10.0,South,16.1,-,N/A,,Partly Cloudy,190,2013-06-29 18:52:00
3:52 PM,81.0,64.9,58,29.57,10.0,South,15.0,21.9,N/A,,Mostly Cloudy,170,2013-06-29 19:52:00
4:52 PM,82.0,66.0,58,29.59,10.0,South,12.7,23.0,N/A,,Partly Cloudy,180,2013-06-29 20:52:00
5:52 PM,80.1,66.0,62,29.60,10.0,South,16.1,21.9,N/A,,Mostly Cloudy,180,2013-06-29 21:52:00
6:52 PM,79.0,66.0,64,29.62,10.0,South,12.7,20.7,N/A,,Clear,190,2013-06-29 22:52:00
7:52 PM,75.0,68.0,79,29.64,10.0,South,6.9,-,N/A,,Clear,180,2013-06-29 23:52:00
8:52 PM,73.0,68.0,84,29.66,10.0,South,8.1,-,N/A,,Partly Cloudy,190,2013-06-30 00:52:00
9:52 PM,72.0,66.9,84,29.69,10.0,South,8.1,-,N/A,,Clear,180,2013-06-30 01:52:00
10:52 PM,71.1,66.9,87,29.70,10.0,SSE,6.9,-,N/A,,Partly Cloudy,160,2013-06-30 02:52:00
11:45 PM,71.6,66.2,83,29.71,10.0,South,8.1,-,N/A,,Mostly Cloudy,170,2013-06-30 03:45:00
11:52 PM,71.1,68.0,90,29.71,10.0,South,8.1,-,N/A,,Overcast,170,2013-06-30 03:52:00